Location: Acequia del Cap
(41.7000°N, 0.6167°E)
Time: 17:12:16
(UTC+00:00)

Cosmos 2322 Rocket - Pass Details

Date: 07 August 2020
Orbit: 831 x 852 km, 71.0° (Epoch: 23 September)

Event Time Altitude Azimuth Distance (km) Brightness Sun altitude
Rises 00:11:32 0° 324° (NW) 3,418 6.0 -31.9°
Reaches altitude 10° 00:14:19 10° 313° (NW) 2,480 5.0 -31.9°
Enters shadow 00:17:04 22° 288° (WNW) 1,778 3.9 -31.9°
